TimeEST,TemperatureF,Dew PointF,Humidity,Sea Level PressureIn,VisibilityMPH,Wind Direction,Wind SpeedMPH,Gust SpeedMPH,PrecipitationIn,Events,Conditions,WindDirDegrees,DateUTC
12:46 AM,51.8,46.4,82,29.79,10.0,West,11.5,18.4,N/A,,Mostly Cloudy,280,2013-02-14 05:46:00
12:51 AM,51.1,46.9,86,29.78,10.0,West,10.4,18.4,N/A,,Mostly Cloudy,280,2013-02-14 05:51:00
1:49 AM,50.0,46.4,87,29.78,10.0,WNW,9.2,16.1,N/A,,Scattered Clouds,300,2013-02-14 06:49:00
1:51 AM,50.0,46.0,86,29.78,10.0,WNW,11.5,18.4,N/A,,Scattered Clouds,300,2013-02-14 06:51:00
2:06 AM,50.0,46.4,87,29.79,10.0,WNW,9.2,18.4,N/A,,Mostly Cloudy,300,2013-02-14 07:06:00
2:51 AM,50.0,44.1,80,29.82,10.0,NW,10.4,19.6,N/A,,Mostly Cloudy,310,2013-02-14 07:51:00
3:49 AM,48.2,42.8,82,29.85,10.0,NW,9.2,21.9,N/A,,Overcast,310,2013-02-14 08:49:00
3:51 AM,48.9,43.0,80,29.85,10.0,NW,9.2,21.9,N/A,,Mostly Cloudy,320,2013-02-14 08:51:00
4:47 AM,46.4,39.2,76,29.89,10.0,NNW,8.1,-,N/A,,Mostly Cloudy,330,2013-02-14 09:47:00
4:51 AM,46.9,39.9,77,29.89,10.0,NNW,8.1,-,N/A,,Mostly Cloudy,330,2013-02-14 09:51:00
5:51 AM,45.0,36.0,71,29.93,10.0,Variable,4.6,-,N/A,,Mostly Cloudy,0,2013-02-14 10:51:00
6:51 AM,44.1,37.0,76,29.95,10.0,Variable,6.9,-,N/A,,Overcast,0,2013-02-14 11:51:00
7:36 AM,44.6,37.4,76,29.97,10.0,North,6.9,-,N/A,,Scattered Clouds,360,2013-02-14 12:36:00
7:51 AM,45.0,37.9,76,29.97,10.0,Variable,6.9,-,N/A,,Mostly Cloudy,0,2013-02-14 12:51:00
8:51 AM,46.0,36.0,68,30.01,10.0,NNE,8.1,-,N/A,,Mostly Cloudy,20,2013-02-14 13:51:00
9:51 AM,46.0,37.0,71,30.01,10.0,NNE,8.1,16.1,N/A,,Overcast,30,2013-02-14 14:51:00
10:51 AM,46.0,36.0,68,30.02,10.0,NNE,8.1,16.1,N/A,,Mostly Cloudy,30,2013-02-14 15:51:00
11:51 AM,48.0,37.0,66,30.02,10.0,Variable,5.8,17.3,N/A,,Scattered Clouds,0,2013-02-14 16:51:00
12:51 PM,48.0,37.0,66,30.03,10.0,Variable,6.9,-,N/A,,Partly Cloudy,0,2013-02-14 17:51:00
1:15 PM,48.2,37.4,66,30.03,10.0,Variable,4.6,-,N/A,,Mostly Cloudy,0,2013-02-14 18:15:00
1:51 PM,48.0,37.0,66,30.02,10.0,Variable,4.6,-,N/A,,Mostly Cloudy,0,2013-02-14 18:51:00
2:07 PM,48.2,37.4,66,30.02,10.0,Variable,3.5,-,N/A,,Partly Cloudy,0,2013-02-14 19:07:00
2:36 PM,46.4,37.4,71,30.03,10.0,Variable,5.8,-,N/A,,Mostly Cloudy,0,2013-02-14 19:36:00
2:51 PM,46.0,37.0,71,30.02,10.0,North,4.6,-,N/A,,Overcast,360,2013-02-14 19:51:00
3:39 PM,46.4,37.4,71,30.02,10.0,NNE,5.8,-,N/A,,Scattered Clouds,20,2013-02-14 20:39:00
3:51 PM,46.9,37.0,68,30.02,10.0,NE,4.6,-,N/A,,Partly Cloudy,50,2013-02-14 20:51:00
4:51 PM,46.0,37.0,71,30.04,10.0,NNE,3.5,-,N/A,,Partly Cloudy,30,2013-02-14 21:51:00
5:51 PM,44.1,37.9,79,30.06,10.0,NE,3.5,-,N/A,,Scattered Clouds,50,2013-02-14 22:51:00
6:51 PM,43.0,37.9,82,30.06,10.0,Calm,Calm,-,N/A,,Clear,0,2013-02-14 23:51:00
7:51 PM,42.1,37.9,85,30.08,10.0,ENE,3.5,-,N/A,,Clear,60,2013-02-15 00:51:00
8:51 PM,39.0,36.0,89,30.08,10.0,Calm,Calm,-,N/A,,Clear,0,2013-02-15 01:51:00
9:51 PM,39.0,37.0,93,30.09,10.0,NNE,3.5,-,N/A,,Clear,20,2013-02-15 02:51:00
10:51 PM,42.1,39.0,89,30.09,10.0,Calm,Calm,-,N/A,,Clear,0,2013-02-15 03:51:00
11:51 PM,41.0,37.9,89,30.06,10.0,North,3.5,-,N/A,,Clear,10,2013-02-15 04:51:00